site,time,unit,value
Bridge Mills,2024-04-18T00:05:00+01:00,MVA,2.665
Bridge Mills,2024-04-18T00:10:00+01:00,MVA,2.702
Bridge Mills,2024-04-18T00:15:00+01:00,MVA,2.737
Bridge Mills,2024-04-18T00:20:00+01:00,MVA,2.7729999999999997
Bridge Mills,2024-04-18T00:25:00+01:00,MVA,2.798
Bridge Mills,2024-04-18T00:30:00+01:00,MVA,2.819
Bridge Mills,2024-04-18T00:35:00+01:00,MVA,2.8369999999999997
Bridge Mills,2024-04-18T00:40:00+01:00,MVA,2.839
Bridge Mills,2024-04-18T00:45:00+01:00,MVA,2.838
Bridge Mills,2024-04-18T00:50:00+01:00,MVA,2.836
Bridge Mills,2024-04-18T00:55:00+01:00,MVA,2.835
Bridge Mills,2024-04-18T01:00:00+01:00,MVA,2.834
Bridge Mills,2024-04-18T01:05:00+01:00,MVA,2.833
Bridge Mills,2024-04-18T01:10:00+01:00,MVA,2.8310000000000004
Bridge Mills,2024-04-18T01:15:00+01:00,MVA,2.83
Bridge Mills,2024-04-18T01:20:00+01:00,MVA,2.829
Bridge Mills,2024-04-18T01:25:00+01:00,MVA,2.8280000000000003
Bridge Mills,2024-04-18T01:30:00+01:00,MVA,2.827
Bridge Mills,2024-04-18T01:35:00+01:00,MVA,2.825
Bridge Mills,2024-04-18T01:40:00+01:00,MVA,2.824
Bridge Mills,2024-04-18T01:45:00+01:00,MVA,2.824
Bridge Mills,2024-04-18T01:50:00+01:00,MVA,2.823
Bridge Mills,2024-04-18T01:55:00+01:00,MVA,2.8209999999999997
Bridge Mills,2024-04-18T02:00:00+01:00,MVA,2.82
Bridge Mills,2024-04-18T02:05:00+01:00,MVA,2.819
Bridge Mills,2024-04-18T02:10:00+01:00,MVA,2.8179999999999996
Bridge Mills,2024-04-18T02:15:00+01:00,MVA,2.817
Bridge Mills,2024-04-18T02:20:00+01:00,MVA,2.815
Bridge Mills,2024-04-18T02:25:00+01:00,MVA,2.814
Bridge Mills,2024-04-18T02:30:00+01:00,MVA,2.8129999999999997
Bridge Mills,2024-04-18T02:35:00+01:00,MVA,2.8120000000000003
Bridge Mills,2024-04-18T02:40:00+01:00,MVA,2.811
Bridge Mills,2024-04-18T02:45:00+01:00,MVA,2.769
Bridge Mills,2024-04-18T02:50:00+01:00,MVA,2.69
Bridge Mills,2024-04-18T02:55:00+01:00,MVA,2.6100000000000003
Bridge Mills,2024-04-18T03:00:00+01:00,MVA,2.5549999999999997
Bridge Mills,2024-04-18T03:05:00+01:00,MVA,2.58
Bridge Mills,2024-04-18T03:10:00+01:00,MVA,2.612
Bridge Mills,2024-04-18T03:15:00+01:00,MVA,2.644
Bridge Mills,2024-04-18T03:20:00+01:00,MVA,2.676
Bridge Mills,2024-04-18T03:25:00+01:00,MVA,2.708
Bridge Mills,2024-04-18T03:30:00+01:00,MVA,2.767
Bridge Mills,2024-04-18T03:35:00+01:00,MVA,2.825
Bridge Mills,2024-04-18T03:40:00+01:00,MVA,2.801
Bridge Mills,2024-04-18T03:45:00+01:00,MVA,2.777
Bridge Mills,2024-04-18T03:50:00+01:00,MVA,2.753
Bridge Mills,2024-04-18T03:55:00+01:00,MVA,2.73
Bridge Mills,2024-04-18T04:00:00+01:00,MVA,2.706
Bridge Mills,2024-04-18T04:05:00+01:00,MVA,2.6820000000000004
Bridge Mills,2024-04-18T04:10:00+01:00,MVA,2.658
Bridge Mills,2024-04-18T04:15:00+01:00,MVA,2.636
Bridge Mills,2024-04-18T04:20:00+01:00,MVA,2.612
Bridge Mills,2024-04-18T04:25:00+01:00,MVA,2.588
Bridge Mills,2024-04-18T04:30:00+01:00,MVA,2.564
Bridge Mills,2024-04-18T04:35:00+01:00,MVA,2.54
Bridge Mills,2024-04-18T04:40:00+01:00,MVA,2.5170000000000003
Bridge Mills,2024-04-18T04:45:00+01:00,MVA,2.519
Bridge Mills,2024-04-18T04:50:00+01:00,MVA,2.591
Bridge Mills,2024-04-18T04:55:00+01:00,MVA,2.667
Bridge Mills,2024-04-18T05:00:00+01:00,MVA,2.742
Bridge Mills,2024-04-18T05:05:00+01:00,MVA,2.818
Bridge Mills,2024-04-18T05:10:00+01:00,MVA,2.879
Bridge Mills,2024-04-18T05:15:00+01:00,MVA,2.806
Bridge Mills,2024-04-18T05:20:00+01:00,MVA,2.838
Bridge Mills,2024-04-18T05:25:00+01:00,MVA,2.871
Bridge Mills,2024-04-18T05:30:00+01:00,MVA,2.904
Bridge Mills,2024-04-18T05:35:00+01:00,MVA,2.9370000000000003
Bridge Mills,2024-04-18T05:40:00+01:00,MVA,2.9699999999999998
Bridge Mills,2024-04-18T05:45:00+01:00,MVA,3.002
Bridge Mills,2024-04-18T05:50:00+01:00,MVA,3.035
Bridge Mills,2024-04-18T05:55:00+01:00,MVA,3.0679999999999996
Bridge Mills,2024-04-18T06:00:00+01:00,MVA,3.101
Bridge Mills,2024-04-18T06:05:00+01:00,MVA,3.133
Bridge Mills,2024-04-18T06:10:00+01:00,MVA,3.167
Bridge Mills,2024-04-18T06:15:00+01:00,MVA,3.199
Bridge Mills,2024-04-18T06:20:00+01:00,MVA,3.232
Bridge Mills,2024-04-18T06:25:00+01:00,MVA,3.2649999999999997
Bridge Mills,2024-04-18T06:30:00+01:00,MVA,3.292
Bridge Mills,2024-04-18T06:35:00+01:00,MVA,3.168
Bridge Mills,2024-04-18T06:40:00+01:00,MVA,3.208
Bridge Mills,2024-04-18T06:45:00+01:00,MVA,3.23
Bridge Mills,2024-04-18T06:50:00+01:00,MVA,3.247
Bridge Mills,2024-04-18T06:55:00+01:00,MVA,3.2640000000000002
Bridge Mills,2024-04-18T07:00:00+01:00,MVA,3.2809999999999997
Bridge Mills,2024-04-18T07:05:00+01:00,MVA,3.299
Bridge Mills,2024-04-18T07:10:00+01:00,MVA,3.316
Bridge Mills,2024-04-18T07:15:00+01:00,MVA,3.333
Bridge Mills,2024-04-18T07:20:00+01:00,MVA,3.341
Bridge Mills,2024-04-18T07:25:00+01:00,MVA,3.276
Bridge Mills,2024-04-18T07:30:00+01:00,MVA,3.196
Bridge Mills,2024-04-18T07:35:00+01:00,MVA,3.116
Bridge Mills,2024-04-18T07:40:00+01:00,MVA,3.076
Bridge Mills,2024-04-18T07:45:00+01:00,MVA,3.094
Bridge Mills,2024-04-18T07:50:00+01:00,MVA,3.113
Bridge Mills,2024-04-18T07:55:00+01:00,MVA,3.1319999999999997
Bridge Mills,2024-04-18T08:00:00+01:00,MVA,3.151
Bridge Mills,2024-04-18T08:05:00+01:00,MVA,3.169
Bridge Mills,2024-04-18T08:10:00+01:00,MVA,3.1879999999999997
Bridge Mills,2024-04-18T08:15:00+01:00,MVA,3.1959999999999997
Bridge Mills,2024-04-18T08:20:00+01:00,MVA,3.1710000000000003
Bridge Mills,2024-04-18T08:25:00+01:00,MVA,3.144
Bridge Mills,2024-04-18T08:30:00+01:00,MVA,3.116
Bridge Mills,2024-04-18T08:35:00+01:00,MVA,3.089
Bridge Mills,2024-04-18T08:40:00+01:00,MVA,3.0620000000000003
Bridge Mills,2024-04-18T08:45:00+01:00,MVA,3.035
Bridge Mills,2024-04-18T08:50:00+01:00,MVA,3.008
Bridge Mills,2024-04-18T08:55:00+01:00,MVA,2.98
Bridge Mills,2024-04-18T09:00:00+01:00,MVA,2.953
Bridge Mills,2024-04-18T09:05:00+01:00,MVA,2.9189999999999996
Bridge Mills,2024-04-18T09:10:00+01:00,MVA,2.7969999999999997
Bridge Mills,2024-04-18T09:15:00+01:00,MVA,2.6479999999999997
Bridge Mills,2024-04-18T09:20:00+01:00,MVA,2.648
Bridge Mills,2024-04-18T09:25:00+01:00,MVA,2.7279999999999998
Bridge Mills,2024-04-18T09:30:00+01:00,MVA,2.809
Bridge Mills,2024-04-18T09:35:00+01:00,MVA,2.8899999999999997
Bridge Mills,2024-04-18T09:40:00+01:00,MVA,2.9699999999999998
Bridge Mills,2024-04-18T09:45:00+01:00,MVA,3.01
Bridge Mills,2024-04-18T09:50:00+01:00,MVA,2.801
Bridge Mills,2024-04-18T09:55:00+01:00,MVA,2.763
Bridge Mills,2024-04-18T10:00:00+01:00,MVA,2.768
Bridge Mills,2024-04-18T10:05:00+01:00,MVA,2.774
Bridge Mills,2024-04-18T10:10:00+01:00,MVA,2.779
Bridge Mills,2024-04-18T10:15:00+01:00,MVA,2.785
Bridge Mills,2024-04-18T10:20:00+01:00,MVA,2.79
Bridge Mills,2024-04-18T10:25:00+01:00,MVA,2.796
Bridge Mills,2024-04-18T10:30:00+01:00,MVA,2.801
Bridge Mills,2024-04-18T10:35:00+01:00,MVA,2.7729999999999997
Bridge Mills,2024-04-18T10:40:00+01:00,MVA,2.625
Bridge Mills,2024-04-18T10:45:00+01:00,MVA,2.552
Bridge Mills,2024-04-18T10:50:00+01:00,MVA,2.479
Bridge Mills,2024-04-18T10:55:00+01:00,MVA,2.416
Bridge Mills,2024-04-18T11:00:00+01:00,MVA,2.354
Bridge Mills,2024-04-18T11:05:00+01:00,MVA,2.3019999999999996
Bridge Mills,2024-04-18T11:10:00+01:00,MVA,2.2809999999999997
Bridge Mills,2024-04-18T11:15:00+01:00,MVA,2.2649999999999997
Bridge Mills,2024-04-18T11:20:00+01:00,MVA,2.2489999999999997
Bridge Mills,2024-04-18T11:25:00+01:00,MVA,2.232
Bridge Mills,2024-04-18T11:30:00+01:00,MVA,2.216
Bridge Mills,2024-04-18T11:35:00+01:00,MVA,2.2
Bridge Mills,2024-04-18T11:40:00+01:00,MVA,2.183
Bridge Mills,2024-04-18T11:45:00+01:00,MVA,2.167
Bridge Mills,2024-04-18T11:50:00+01:00,MVA,2.151
Bridge Mills,2024-04-18T11:55:00+01:00,MVA,2.134
Bridge Mills,2024-04-18T12:00:00+01:00,MVA,2.117
Bridge Mills,2024-04-18T12:05:00+01:00,MVA,2.1020000000000003
Bridge Mills,2024-04-18T12:10:00+01:00,MVA,2.085
Bridge Mills,2024-04-18T12:15:00+01:00,MVA,2.068
Bridge Mills,2024-04-18T12:20:00+01:00,MVA,2.053
Bridge Mills,2024-04-18T12:25:00+01:00,MVA,2.036
Bridge Mills,2024-04-18T12:30:00+01:00,MVA,2.019
Bridge Mills,2024-04-18T12:35:00+01:00,MVA,2.009
Bridge Mills,2024-04-18T12:40:00+01:00,MVA,2.032
Bridge Mills,2024-04-18T12:45:00+01:00,MVA,2.061
Bridge Mills,2024-04-18T12:50:00+01:00,MVA,2.09
Bridge Mills,2024-04-18T12:55:00+01:00,MVA,2.12
Bridge Mills,2024-04-18T13:00:00+01:00,MVA,2.149
Bridge Mills,2024-04-18T13:05:00+01:00,MVA,2.178
Bridge Mills,2024-04-18T13:10:00+01:00,MVA,2.149
Bridge Mills,2024-04-18T13:15:00+01:00,MVA,2.012
Bridge Mills,2024-04-18T13:20:00+01:00,MVA,1.943
Bridge Mills,2024-04-18T13:25:00+01:00,MVA,1.876
Bridge Mills,2024-04-18T13:30:00+01:00,MVA,1.823
Bridge Mills,2024-04-18T13:35:00+01:00,MVA,1.843
Bridge Mills,2024-04-18T13:40:00+01:00,MVA,1.9209999999999998
Bridge Mills,2024-04-18T13:45:00+01:00,MVA,1.9979999999999998
Bridge Mills,2024-04-18T13:50:00+01:00,MVA,2.073
Bridge Mills,2024-04-18T13:55:00+01:00,MVA,2.151
Bridge Mills,2024-04-18T14:00:00+01:00,MVA,2.193
Bridge Mills,2024-04-18T14:05:00+01:00,MVA,2.077
Bridge Mills,2024-04-18T14:10:00+01:00,MVA,2.045
Bridge Mills,2024-04-18T14:15:00+01:00,MVA,2.0380000000000003
Bridge Mills,2024-04-18T14:20:00+01:00,MVA,2.03
Bridge Mills,2024-04-18T14:25:00+01:00,MVA,2.022
Bridge Mills,2024-04-18T14:30:00+01:00,MVA,2.0140000000000002
Bridge Mills,2024-04-18T14:35:00+01:00,MVA,2.007
Bridge Mills,2024-04-18T14:40:00+01:00,MVA,1.998
Bridge Mills,2024-04-18T14:45:00+01:00,MVA,1.991
Bridge Mills,2024-04-18T14:50:00+01:00,MVA,2.001
Bridge Mills,2024-04-18T14:55:00+01:00,MVA,2.088
Bridge Mills,2024-04-18T15:00:00+01:00,MVA,2.184
Bridge Mills,2024-04-18T15:05:00+01:00,MVA,2.269
Bridge Mills,2024-04-18T15:10:00+01:00,MVA,2.311
Bridge Mills,2024-04-18T15:15:00+01:00,MVA,2.348
Bridge Mills,2024-04-18T15:20:00+01:00,MVA,2.386
Bridge Mills,2024-04-18T15:25:00+01:00,MVA,2.424
Bridge Mills,2024-04-18T15:30:00+01:00,MVA,2.4610000000000003
Bridge Mills,2024-04-18T15:35:00+01:00,MVA,2.499
Bridge Mills,2024-04-18T15:40:00+01:00,MVA,2.536
Bridge Mills,2024-04-18T15:45:00+01:00,MVA,2.574
Bridge Mills,2024-04-18T15:50:00+01:00,MVA,2.6109999999999998
Bridge Mills,2024-04-18T15:55:00+01:00,MVA,2.593
Bridge Mills,2024-04-18T16:00:00+01:00,MVA,2.3529999999999998
Bridge Mills,2024-04-18T16:05:00+01:00,MVA,2.314
Bridge Mills,2024-04-18T16:10:00+01:00,MVA,2.372
Bridge Mills,2024-04-18T16:15:00+01:00,MVA,2.444
Bridge Mills,2024-04-18T16:20:00+01:00,MVA,2.516
Bridge Mills,2024-04-18T16:25:00+01:00,MVA,2.5869999999999997
Bridge Mills,2024-04-18T16:30:00+01:00,MVA,2.659
Bridge Mills,2024-04-18T16:35:00+01:00,MVA,2.731
Bridge Mills,2024-04-18T16:40:00+01:00,MVA,2.788
Bridge Mills,2024-04-18T16:45:00+01:00,MVA,2.767
Bridge Mills,2024-04-18T16:50:00+01:00,MVA,2.7329999999999997
Bridge Mills,2024-04-18T16:55:00+01:00,MVA,2.7430000000000003
Bridge Mills,2024-04-18T17:00:00+01:00,MVA,2.802
Bridge Mills,2024-04-18T17:05:00+01:00,MVA,2.862
Bridge Mills,2024-04-18T17:10:00+01:00,MVA,2.9219999999999997
Bridge Mills,2024-04-18T17:15:00+01:00,MVA,2.98
Bridge Mills,2024-04-18T17:20:00+01:00,MVA,3.04
Bridge Mills,2024-04-18T17:25:00+01:00,MVA,3.092
Bridge Mills,2024-04-18T17:30:00+01:00,MVA,3.028
Bridge Mills,2024-04-18T17:35:00+01:00,MVA,2.939
Bridge Mills,2024-04-18T17:40:00+01:00,MVA,2.948
Bridge Mills,2024-04-18T17:45:00+01:00,MVA,2.9749999999999996
Bridge Mills,2024-04-18T17:50:00+01:00,MVA,3.0010000000000003
Bridge Mills,2024-04-18T17:55:00+01:00,MVA,3.028
Bridge Mills,2024-04-18T18:00:00+01:00,MVA,3.055
Bridge Mills,2024-04-18T18:05:00+01:00,MVA,3.081
Bridge Mills,2024-04-18T18:10:00+01:00,MVA,3.108
Bridge Mills,2024-04-18T18:15:00+01:00,MVA,3.1390000000000002
Bridge Mills,2024-04-18T18:20:00+01:00,MVA,3.1900000000000004
Bridge Mills,2024-04-18T18:25:00+01:00,MVA,3.2439999999999998
Bridge Mills,2024-04-18T18:30:00+01:00,MVA,3.2969999999999997
Bridge Mills,2024-04-18T18:35:00+01:00,MVA,3.3499999999999996
Bridge Mills,2024-04-18T18:40:00+01:00,MVA,3.403
Bridge Mills,2024-04-18T18:45:00+01:00,MVA,3.401
Bridge Mills,2024-04-18T18:50:00+01:00,MVA,3.355
Bridge Mills,2024-04-18T18:55:00+01:00,MVA,3.308
Bridge Mills,2024-04-18T19:00:00+01:00,MVA,3.261
Bridge Mills,2024-04-18T19:05:00+01:00,MVA,3.266
Bridge Mills,2024-04-18T19:10:00+01:00,MVA,3.322
Bridge Mills,2024-04-18T19:15:00+01:00,MVA,3.378
Bridge Mills,2024-04-18T19:20:00+01:00,MVA,3.434
Bridge Mills,2024-04-18T19:25:00+01:00,MVA,3.487
Bridge Mills,2024-04-18T19:30:00+01:00,MVA,3.475
Bridge Mills,2024-04-18T19:35:00+01:00,MVA,3.4299999999999997
Bridge Mills,2024-04-18T19:40:00+01:00,MVA,3.385
Bridge Mills,2024-04-18T19:45:00+01:00,MVA,3.341
Bridge Mills,2024-04-18T19:50:00+01:00,MVA,3.2960000000000003
Bridge Mills,2024-04-18T19:55:00+01:00,MVA,3.2510000000000003
Bridge Mills,2024-04-18T20:00:00+01:00,MVA,3.206
Bridge Mills,2024-04-18T20:05:00+01:00,MVA,3.161
Bridge Mills,2024-04-18T20:10:00+01:00,MVA,3.115
Bridge Mills,2024-04-18T20:15:00+01:00,MVA,3.07
Bridge Mills,2024-04-18T20:20:00+01:00,MVA,3.025
Bridge Mills,2024-04-18T20:25:00+01:00,MVA,2.9939999999999998
Bridge Mills,2024-04-18T20:30:00+01:00,MVA,3.032
Bridge Mills,2024-04-18T20:35:00+01:00,MVA,3.08
Bridge Mills,2024-04-18T20:40:00+01:00,MVA,3.127
Bridge Mills,2024-04-18T20:45:00+01:00,MVA,3.175
Bridge Mills,2024-04-18T20:50:00+01:00,MVA,3.221
Bridge Mills,2024-04-18T20:55:00+01:00,MVA,3.317
Bridge Mills,2024-04-18T21:00:00+01:00,MVA,3.4050000000000002
Bridge Mills,2024-04-18T21:05:00+01:00,MVA,3.379
Bridge Mills,2024-04-18T21:10:00+01:00,MVA,3.351
Bridge Mills,2024-04-18T21:15:00+01:00,MVA,3.324
Bridge Mills,2024-04-18T21:20:00+01:00,MVA,3.2960000000000003
Bridge Mills,2024-04-18T21:25:00+01:00,MVA,3.268
Bridge Mills,2024-04-18T21:30:00+01:00,MVA,3.234
Bridge Mills,2024-04-18T21:35:00+01:00,MVA,3.184
Bridge Mills,2024-04-18T21:40:00+01:00,MVA,3.068
Bridge Mills,2024-04-18T21:45:00+01:00,MVA,2.904
Bridge Mills,2024-04-18T21:50:00+01:00,MVA,2.76
Bridge Mills,2024-04-18T21:55:00+01:00,MVA,2.705
Bridge Mills,2024-04-18T22:00:00+01:00,MVA,2.746
Bridge Mills,2024-04-18T22:05:00+01:00,MVA,2.7960000000000003
Bridge Mills,2024-04-18T22:10:00+01:00,MVA,2.846
Bridge Mills,2024-04-18T22:15:00+01:00,MVA,2.8970000000000002
Bridge Mills,2024-04-18T22:20:00+01:00,MVA,2.9050000000000002
Bridge Mills,2024-04-18T22:25:00+01:00,MVA,2.841
Bridge Mills,2024-04-18T22:30:00+01:00,MVA,2.785
Bridge Mills,2024-04-18T22:35:00+01:00,MVA,2.745
Bridge Mills,2024-04-18T22:40:00+01:00,MVA,2.706
Bridge Mills,2024-04-18T22:45:00+01:00,MVA,2.6660000000000004
Bridge Mills,2024-04-18T22:50:00+01:00,MVA,2.6260000000000003
Bridge Mills,2024-04-18T22:55:00+01:00,MVA,2.5860000000000003
Bridge Mills,2024-04-18T23:00:00+01:00,MVA,2.547
Bridge Mills,2024-04-18T23:05:00+01:00,MVA,2.508
Bridge Mills,2024-04-18T23:10:00+01:00,MVA,2.468
Bridge Mills,2024-04-18T23:15:00+01:00,MVA,2.428
Bridge Mills,2024-04-18T23:20:00+01:00,MVA,2.435
Bridge Mills,2024-04-18T23:25:00+01:00,MVA,2.521
Bridge Mills,2024-04-18T23:30:00+01:00,MVA,2.61
Bridge Mills,2024-04-18T23:35:00+01:00,MVA,2.697
Bridge Mills,2024-04-18T23:40:00+01:00,MVA,2.724
Bridge Mills,2024-04-18T23:45:00+01:00,MVA,2.6399999999999997
Bridge Mills,2024-04-18T23:50:00+01:00,MVA,2.6239999999999997
Bridge Mills,2024-04-18T23:55:00+01:00,MVA,2.684
Bridge Mills,2024-04-19T00:00:00+01:00,MVA,2.7430000000000003
